Voltar ao catálogo

RESOURCESAT 2

AtivoCiênciaSSO
NORAD 37387·PAYLOAD·🇮🇳 India

Lançado Apr 20, 2011 de Satish Dhawan Space Centre

Loading…

Próximas Passagens (próximas 24 horas)

TLE

AtualizadoSource: Space-Track

Época: Sep 14, 2026, 14:46 UTC

1 37387U 11015A   26257.61585446  .00000046  00000-0  41078-4 0  9991
2 37387  98.7561 324.4021 0011191   5.6651 354.4651 14.21609581798883

Acompanhe RESOURCESAT 2 em tempo real com AllMySat

Download on the App Store